Regional Weather Roundup
Issued by NWS

Home | Current Version | Previous Version | Text Only | Print | Product List | Glossary On
Versions: 1 2 3 4 5 6 7 8 9 10 11 12 13 14 15 16 17 18 19 20 21 22 23 24 25 26 27 28 29 30 31 32 33 34 35 36 37 38 39 40 41 42 43 44 45 46 47 48 49 50
000
ASUS43 KTOP 260108
RWRKS

WEATHER ROUNDUP FOR KANSAS
NATIONAL WEATHER SERVICE GOODLAND KS
800 PM CDT SAT APR 25 2015

NOTE:  "FAIR" INDICATES FEW OR NO CLOUDS BELOW 12,000 FEET WITH NO
SIGNIFICANT WEATHER AND/OR OBSTRUCTIONS TO VISIBILITY.

KSZ001>006-013>018-027>032-041>047-260200-
NORTHWEST KANSAS

CITY           SKY/WX    TMP DP  RH WIND       PRES   REMARKS
GOODLAND       PTCLDY    65  44  46 E10       29.70R
HAYS           CLEAR     59  48  67 NE18      29.72R
HILL CITY      PTCLDY    58  51  78 E16       29.74R
RUSSELL        PTCLDY    57  52  83 NE15      29.71R
$$

KSZ061>065-074>080-084>089-260200-
SOUTHWEST KANSAS

CITY           SKY/WX    TMP DP  RH WIND       PRES   REMARKS
DODGE CITY     CLEAR     69  52  54 E18       29.67R
ELKHART          N/A     72  34  25 E10         N/A
GARDEN CITY    CLEAR     70  41  34 NE7       29.67R
GREAT BEND     CLEAR     63  52  67 NE13      29.70R
LIBERAL        PTCLDY    75  34  22 E8        29.67R
$$

KSZ066>073-081>083-090>101-260200-
SOUTHEAST KANSAS

CITY           SKY/WX    TMP DP  RH WIND       PRES   REMARKS
CHANUTE        CLEAR     61  55  81 N13       29.69R
COFFEYVILLE    CLEAR     67  54  63 N13       29.65R
HUTCHINSON     CLEAR     63  54  72 NE12      29.70R
MEDICINE LODGE   N/A     70  56  61 NE14      29.65R
NEWTON         CLEAR     59  50  72 NE13      29.73R
PARSONS        PTCLDY    66  56  70 N9        29.68R
WICHITA INTL   CLEAR     69  52  54 NE13      29.67R
WICHITA JABRA  CLEAR     64  54  69 N12       29.68R
WICHITA MCCONL CLEAR     67  55  64 NE15      29.68R
WINFIELD       CLEAR     70  53  54 N12       29.67R
$$

KSZ007>012-019>026-033>040-048>060-102>105-260200-
NORTHEAST KANSAS

CITY           SKY/WX    TMP DP  RH WIND       PRES   REMARKS
CONCORDIA      CLOUDY    51  47  86 NE10      29.77R
EMPORIA        CLOUDY    55  51  86 N9        29.72R
LAWRENCE       CLOUDY    52  47  83 N12       29.74R
MANHATTAN      CLOUDY    54  50  86 NE14      29.75R
MARYSVILLE     CLOUDY    50  46  87 NE9G17    29.78R
OLATHE IND     CLOUDY    51  48  89 N12       29.73R
OLATHE EXE     CLOUDY    52  48  86 N13       29.71R
SALINA         CLOUDY    58  50  75 N14       29.74R
TOPEKA BILLARD CLOUDY    52  48  86 N12G21    29.75R
TOPEKA FORBES  CLOUDY    53  48  83 N12       29.74R
$$


USA.gov is the U.S. government's official web portal to all federal, state and local government web resources and services.